Tracking 29892 objects as of 21-Nov-2024
HD Live streaming from Space Station
objects crossing your sky now

COSMOS 2024 (ETALON 2)

Track COSMOS 2024 (ETALON 2) now!
COSMOS 2024 (ETALON 2) is classified as:


NORAD ID: 20026
Int'l Code: 1989-039C
Perigee: 19,078.3 km
Apogee: 19,179.5 km
Inclination: 65.3 °
Period: 675.4 minutes
Semi major axis: 25499 km
RCS: 1.2589 m2 (large)
Launch date: May 31, 1989
Source: Commonwealth of Independent States (former USSR) (CIS)
Launch site: TYURATAM MISSILE AND SPACE COMPLEX (TTMTR)
Your satellite tracking list
Your tracking list is empty




NASA's NSSDC Master Catalog

Two Line Element Set (TLE):
1 20026U 89039C   24325.62668424 -.00000050  00000-0  00000-0 0  9999
2 20026  65.2639 330.2241 0019840 216.6498 320.1768  2.13204440276277
Source of the keplerian elements: AFSPC